Wind_Speed
17 14 13 13 14 14 14 14 15 14 14 13 12 12 12 12 12 14 14 14 14 13 13 14 15 17 17 16 14 14 16 19 20 23 24 24 25 28 30 31 33 35 37 41 44
17 15 14 14 13 14 15 15 14 15 14 14 13 12 13 14 15 14 15 15 15 14 14 15 17 16 15 14 15 15 16 17 19 22 23 25 26 29 31 31 34 34 35 39 42
20 17 15 15 14 14 14 15 14 13 13 14 13 13 13 13 15 15 16 16 16 16 16 17 18 16 15 14 15 17 17 17 18 19 21 22 26 29 31 33 35 35 36 39 40
21 19 16 16 15 14 15 14 13 13 14 14 13 12 13 14 14 15 16 17 17 18 18 18 18 16 16 15 15 17 17 16 17 18 20 22 26 28 30 33 35 40 43 45 43
23 19 18 17 17 17 15 15 15 15 14 13 13 12 13 13 14 16 16 17 18 19 19 18 17 16 17 15 15 16 16 17 18 19 22 24 26 28 30 32 37 40 42 44 43
25 22 20 20 20 18 16 16 14 14 14 12 11 12 10 11 12 15 17 18 18 18 18 18 17 15 16 15 15 15 16 18 18 19 23 25 25 27 29 34 37 39 43 44 44
27 23 21 21 21 20 18 16 15 15 14 12 11 10 8 11 13 15 17 18 18 18 18 18 17 15 15 16 16 16 18 18 18 19 23 22 24 27 30 34 37 38 41 42 43
29 26 24 28 26 22 20 17 15 16 16 14 12 12 13 14 14 16 17 18 19 18 17 17 18 17 15 16 16 16 18 18 18 18 21 21 26 28 32 35 38 40 43 42 44
34 29 29 30 27 24 22 20 18 17 17 15 14 14 14 14 14 16 17 19 19 17 17 18 19 18 18 17 17 17 17 19 17 17 19 23 25 28 31 34 39 41 43 44 46
37 35 31 31 28 26 24 22 21 20 19 18 17 13 13 10 14 16 17 19 20 18 17 19 19 20 20 20 19 18 18 18 17 17 19 21 24 26 30 33 38 41 45 46 48
40 39 35 34 32 29 27 25 24 23 21 21 18 15 14 12 13 16 17 18 19 19 19 20 19 21 22 22 20 19 18 17 18 17 17 19 23 26 30 32 36 41 44 47 48
42 43 39 39 36 34 29 29 27 27 25 25 19 17 16 15 15 16 17 18 16 18 19 20 19 22 23 22 21 20 18 18 18 18 17 19 22 25 28 31 36 40 43 46 48
44 44 42 42 40 38 33 33 30 31 29 28 23 20 19 18 16 16 17 17 15 16 17 19 20 23 23 22 21 20 18 18 19 20 19 19 19 23 27 31 34 38 41 45 45
52 51 46 43 43 40 38 35 34 34 34 31 27 22 20 19 17 16 16 14 15 15 16 19 22 23 20 19 20 19 18 19 19 18 20 20 17 23 25 28 31 36 39 42 42
50 50 50 48 45 43 41 39 38 36 40 35 30 24 22 23 20 18 16 13 16 17 17 18 20 20 19 19 18 17 18 19 19 19 18 19 19 21 22 24 29 33 35 40 40
54 52 49 49 48 48 46 43 41 41 47 37 32 26 25 24 22 21 22 20 20 19 18 18 17 17 17 17 18 17 17 18 18 17 17 18 18 19 20 22 26 30 33 37 38
55 58 54 52 50 50 49 48 47 50 42 40 34 29 26 26 27 25 25 23 22 21 19 18 18 18 18 17 18 17 17 18 16 17 17 17 18 19 20 21 24 26 29 33 35
53 56 58 56 53 52 52 51 54 49 45 44 37 34 29 27 27 26 24 25 24 22 23 22 19 19 18 18 17 17 16 17 16 16 16 19 19 17 19 19 20 22 25 29 33
55 52 59 62 60 55 55 57 56 50 47 45 41 38 34 32 30 28 26 26 25 24 24 23 20 20 19 19 19 18 18 18 18 16 16 17 18 16 17 16 16 19 22 26 30
61 59 55 63 66 62 64 58 56 55 51 46 44 41 38 36 35 32 29 30 30 29 27 26 24 21 22 19 20 21 21 20 19 19 17 14 16 17 15 16 14 14 17 21 26
52 62 59 58 65 69 62 56 56 54 52 47 46 42 41 39 37 38 32 30 30 31 30 29 27 24 25 24 21 22 24 24 23 21 19 15 14 16 15 15 12 11 11 16 21
51 55 54 61 64 60 59 61 53 54 52 51 46 43 42 40 42 40 35 32 31 32 30 31 30 27 26 28 26 22 23 25 25 23 21 21 14 17 17 14 13 9 9 11 15
57 55 55 53 51 51 55 57 55 54 55 54 49 45 42 42 43 40 35 33 32 33 30 32 31 29 26 26 28 25 24 25 23 22 19 18 14 19 20 16 12 9 9 8 11
63 61 54 54 50 48 46 48 57 54 54 56 50 52 45 45 44 43 38 34 34 33 31 32 34 32 30 29 28 27 24 25 23 22 18 15 14 22 21 15 10 11 10 8 8
68 64 63 61 54 51 47 47 46 51 56 49 52 57 51 46 47 46 41 36 36 34 29 32 34 34 33 31 29 29 26 26 22 23 22 16 15 23 23 13 14 14 13 11 9
66 72 62 60 58 57 51 44 44 48 52 53 55 52 50 50 50 48 43 41 38 38 32 32 33 32 31 35 35 30 25 27 25 23 24 19 13 26 23 18 17 19 17 13 11
67 66 62 70 67 66 53 47 44 48 52 53 57 54 54 53 52 51 47 46 45 39 35 35 35 33 31 34 37 33 23 30 27 23 24 18 18 23 21 19 18 19 19 17 14
Wind_Direction
259 252 246 237 230 237 238 235 241 236 238 246 250 258 261 255 258 263 259 255 253 261 269 277 286 284 283 284 284 287 287 287 286 292 304 310 313 317 320 323 323 328 329 332 338
254 249 240 240 232 231 234 234 232 236 239 242 246 248 251 253 252 253 254 248 249 259 272 285 288 290 281 279 283 286 286 285 287 288 299 308 310 313 316 321 324 326 331 335 341
249 245 241 238 235 234 232 236 237 241 247 249 253 256 256 250 252 254 253 250 253 260 274 283 285 285 275 278 284 289 289 289 288 296 305 307 310 314 319 322 324 329 337 339 342
242 240 237 237 236 235 237 239 241 243 244 249 248 254 263 259 250 252 251 250 256 264 273 279 280 279 276 277 284 290 292 290 292 304 310 306 307 313 316 321 324 333 339 339 343
236 235 234 238 238 235 238 237 240 240 239 243 251 254 261 266 261 258 253 255 259 267 274 277 275 272 271 274 283 293 295 290 295 304 310 307 307 314 318 325 327 335 338 340 340
232 232 235 235 237 239 240 238 242 241 231 238 244 248 251 268 268 265 260 257 259 267 272 272 274 274 273 274 282 290 292 293 297 303 309 309 314 314 320 327 332 335 336 340 341
233 231 239 248 240 236 237 238 241 235 231 223 230 238 248 275 278 265 258 259 258 263 270 274 271 273 274 276 281 286 290 293 297 303 309 313 313 317 323 327 331 334 337 340 344
231 234 249 250 243 235 239 238 239 233 224 228 234 239 273 286 272 268 258 255 259 261 265 270 267 270 274 279 281 286 292 293 295 304 310 306 307 314 321 327 331 333 336 340 345
234 232 243 242 239 237 241 239 237 228 233 231 249 257 276 294 277 264 262 259 259 261 264 265 268 273 276 277 279 286 293 293 291 300 305 303 307 315 321 328 332 336 337 339 345
231 233 241 238 237 238 239 239 237 232 234 236 248 261 272 293 287 269 262 261 259 260 260 263 266 273 277 279 278 282 292 296 292 298 306 309 311 318 324 330 332 336 337 343 349
232 231 239 237 234 237 233 238 242 233 231 234 260 260 266 284 283 271 266 265 262 260 262 262 269 277 278 276 276 279 286 289 286 288 296 307 313 322 328 330 332 335 342 345 354
230 233 235 237 235 236 235 238 241 237 231 237 252 259 267 273 276 268 266 267 267 264 260 262 275 284 283 276 275 275 281 289 286 288 296 304 313 320 326 329 331 335 347 348 356
229 233 236 235 236 236 234 238 240 240 235 236 247 256 266 268 276 265 261 267 268 263 259 260 273 283 283 276 273 273 277 285 285 286 293 300 310 318 323 328 332 339 352 350 359
232 233 233 231 237 238 236 238 239 240 240 243 243 251 266 260 266 264 257 263 272 267 264 269 276 280 276 274 272 275 278 284 285 285 289 295 306 312 320 328 334 344 354 353 1
233 233 228 231 235 237 239 237 237 239 246 241 243 253 258 255 257 252 252 260 264 269 269 268 277 278 274 273 270 272 276 281 284 287 290 293 301 308 319 327 336 346 356 356 2
229 232 232 231 232 234 234 238 237 238 242 242 241 247 255 252 255 257 255 258 260 261 268 266 278 274 272 275 274 272 275 280 286 287 288 291 299 304 319 329 340 347 360 359 2
239 231 229 230 231 231 232 232 235 238 240 243 243 242 250 252 255 265 254 258 263 264 262 266 274 282 274 275 273 272 275 279 283 287 289 290 295 303 319 333 340 345 2 2 3
235 238 234 227 229 230 229 232 234 240 241 243 241 240 244 251 252 265 260 254 262 263 259 261 265 272 281 270 271 272 271 279 286 290 288 290 291 302 314 329 335 342 2 6 4
237 235 235 234 227 227 231 232 233 240 242 242 242 241 244 249 251 261 263 258 260 262 261 259 261 268 273 275 269 264 267 272 282 294 297 290 289 291 306 318 330 343 2 10 8
239 238 235 237 229 225 228 233 236 238 242 238 241 241 242 245 248 253 259 262 262 267 262 265 267 268 266 272 270 264 263 267 276 285 294 294 285 284 297 307 322 341 2 14 14
235 236 237 238 239 234 234 233 236 242 237 235 237 237 239 242 246 253 253 260 264 269 266 265 266 268 269 266 267 268 265 263 266 275 282 288 285 276 282 295 311 331 357 9 16
227 235 238 241 239 241 241 235 238 233 232 235 236 236 237 238 241 251 251 258 265 263 267 266 263 266 264 267 266 262 265 262 265 265 270 278 280 277 272 279 291 312 334 351 11
230 232 232 238 240 240 242 237 231 231 230 231 233 234 234 234 243 248 250 257 259 262 267 269 264 263 260 264 262 259 263 267 265 264 265 263 278 270 263 263 275 294 312 339 360
230 228 229 233 235 236 237 234 230 233 233 236 234 238 233 238 242 243 249 252 252 263 265 270 264 262 260 262 260 256 260 267 267 274 262 271 258 269 261 262 270 275 294 316 339
228 229 233 232 236 240 236 232 231 238 237 232 233 237 240 236 241 245 251 248 253 257 262 266 265 261 257 260 262 255 255 261 268 273 269 250 255 252 269 265 254 263 276 293 315
226 226 227 232 234 233 228 225 224 234 235 237 241 242 236 241 244 246 250 248 249 249 254 260 261 263 250 259 262 260 254 261 268 269 273 269 260 255 262 265 249 254 265 277 292
224 225 227 229 233 229 229 229 234 232 230 232 236 240 240 241 243 247 248 247 249 249 249 254 258 262 249 251 257 259 254 255 259 267 274 275 268 257 262 264 258 255 261 266 274
Height
5839 5838 5840 5840 5839 5842 5843 5843 5845 5845 5845 5846 5847 5847 5848 5848 5848 5847 5847 5847 5847 5847 5846 5844 5843 5842 5841 5839 5839 5837 5836 5834 5833 5832 5830 5828 5826 5822 5819 5814 5809 5804 5798 5793 5788
5835 5835 5835 5837 5837 5837 5839 5840 5840 5841 5842 5842 5843 5842 5843 5844 5846 5845 5845 5845 5845 5844 5844 5842 5841 5839 5838 5836 5836 5835 5834 5832 5831 5828 5827 5824 5822 5819 5816 5811 5806 5801 5794 5789 5782
5830 5832 5833 5834 5834 5834 5836 5838 5838 5839 5840 5841 5842 5842 5841 5840 5842 5842 5842 5842 5842 5841 5840 5839 5838 5837 5835 5834 5833 5832 5831 5829 5827 5825 5823 5820 5817 5814 5811 5807 5801 5796 5790 5783 5775
5826 5828 5829 5831 5833 5833 5833 5835 5835 5836 5837 5838 5838 5839 5840 5839 5840 5839 5839 5839 5839 5839 5837 5836 5835 5834 5833 5831 5829 5828 5827 5825 5823 5821 5819 5817 5814 5811 5808 5803 5797 5791 5784 5776 5767
5822 5823 5824 5827 5828 5829 5830 5831 5832 5832 5833 5834 5835 5835 5836 5836 5836 5836 5836 5836 5835 5835 5834 5833 5832 5832 5830 5829 5827 5826 5824 5823 5820 5818 5816 5813 5811 5808 5804 5799 5793 5786 5780 5772 5763
5817 5819 5820 5821 5824 5825 5827 5828 5830 5830 5829 5831 5832 5831 5832 5833 5832 5832 5833 5832 5831 5831 5830 5829 5829 5828 5827 5826 5825 5823 5821 5820 5817 5815 5813 5810 5808 5804 5801 5796 5789 5783 5776 5768 5759
5812 5813 5816 5818 5819 5820 5822 5824 5824 5826 5826 5827 5828 5829 5829 5830 5829 5827 5827 5828 5828 5827 5826 5826 5825 5825 5824 5823 5822 5820 5818 5816 5814 5812 5810 5807 5806 5802 5797 5792 5785 5779 5771 5763 5754
5806 5808 5811 5813 5814 5816 5818 5820 5822 5823 5823 5824 5824 5825 5826 5825 5824 5824 5824 5824 5825 5824 5822 5823 5822 5821 5820 5820 5819 5817 5815 5813 5810 5809 5808 5806 5802 5798 5794 5788 5782 5775 5767 5759 5749
5799 5802 5804 5806 5809 5811 5813 5815 5817 5818 5820 5820 5822 5821 5822 5821 5820 5820 5820 5821 5821 5820 5819 5819 5819 5819 5818 5816 5816 5814 5812 5810 5807 5806 5805 5803 5799 5795 5790 5784 5777 5770 5763 5755 5746
5791 5795 5798 5800 5802 5805 5808 5809 5812 5813 5817 5816 5817 5818 5818 5817 5816 5817 5816 5817 5817 5816 5815 5816 5815 5815 5814 5813 5812 5810 5808 5806 5804 5803 5801 5800 5796 5791 5786 5780 5773 5767 5760 5751 5742
5782 5786 5790 5793 5796 5799 5801 5804 5807 5809 5811 5811 5814 5813 5813 5812 5813 5813 5813 5813 5812 5811 5811 5811 5811 5811 5810 5809 5808 5807 5805 5802 5801 5800 5798 5796 5792 5787 5782 5777 5771 5764 5758 5747 5739
5773 5778 5780 5786 5788 5793 5794 5797 5799 5804 5804 5806 5807 5808 5809 5809 5809 5809 5810 5810 5808 5807 5807 5808 5807 5806 5805 5804 5804 5803 5802 5800 5798 5796 5795 5793 5789 5785 5779 5775 5769 5762 5754 5745 5737
5764 5768 5772 5776 5780 5785 5787 5790 5794 5797 5798 5800 5802 5803 5803 5805 5804 5805 5806 5806 5803 5803 5802 5802 5802 5800 5800 5800 5799 5798 5797 5796 5794 5791 5790 5789 5787 5783 5777 5772 5766 5759 5752 5744 5735
5752 5757 5763 5767 5774 5776 5779 5783 5787 5789 5789 5794 5795 5799 5799 5799 5800 5801 5801 5801 5801 5800 5799 5798 5797 5796 5795 5794 5794 5794 5793 5792 5789 5788 5786 5785 5785 5779 5775 5770 5764 5758 5751 5743 5734
5741 5745 5751 5757 5762 5767 5772 5774 5777 5780 5779 5786 5788 5792 5793 5794 5796 5796 5796 5795 5796 5796 5796 5795 5793 5792 5791 5790 5789 5789 5788 5788 5786 5784 5783 5781 5780 5776 5773 5768 5762 5756 5751 5742 5734
5728 5734 5740 5745 5750 5756 5760 5765 5769 5771 5766 5775 5780 5784 5787 5788 5789 5790 5790 5791 5791 5791 5790 5790 5788 5787 5786 5786 5786 5785 5784 5783 5782 5780 5779 5777 5775 5773 5770 5766 5760 5755 5749 5741 5734
5715 5720 5726 5733 5738 5743 5749 5753 5757 5754 5764 5768 5773 5778 5780 5782 5782 5784 5784 5784 5786 5786 5785 5785 5785 5783 5782 5782 5782 5781 5780 5779 5779 5777 5775 5773 5772 5769 5766 5763 5758 5754 5748 5742 5734
5701 5708 5714 5719 5724 5730 5735 5741 5742 5746 5754 5760 5765 5769 5772 5775 5776 5777 5777 5778 5779 5780 5779 5780 5780 5779 5778 5778 5778 5777 5776 5775 5773 5773 5772 5769 5768 5766 5763 5760 5756 5753 5748 5742 5735
5689 5694 5700 5704 5708 5715 5723 5726 5731 5739 5746 5752 5757 5760 5764 5766 5770 5770 5771 5772 5772 5773 5775 5774 5775 5774 5774 5773 5773 5773 5771 5771 5769 5769 5767 5766 5764 5763 5760 5758 5755 5752 5747 5742 5735
5676 5681 5684 5687 5692 5698 5706 5716 5723 5728 5734 5741 5747 5751 5755 5758 5761 5763 5763 5765 5766 5767 5767 5768 5768 5770 5769 5768 5768 5767 5767 5766 5765 5764 5764 5763 5760 5759 5758 5756 5753 5750 5746 5742 5737
5659 5665 5670 5673 5677 5681 5694 5704 5711 5717 5724 5731 5736 5741 5745 5748 5752 5754 5755 5758 5759 5759 5760 5761 5763 5766 5764 5763 5762 5762 5761 5760 5760 5760 5759 5759 5758 5756 5754 5753 5751 5748 5745 5742 5738
5645 5649 5656 5658 5663 5673 5686 5692 5700 5705 5712 5718 5725 5730 5734 5739 5742 5745 5748 5749 5751 5752 5753 5754 5754 5756 5757 5756 5756 5756 5755 5754 5754 5755 5753 5754 5756 5752 5751 5750 5749 5747 5744 5741 5738
5633 5635 5640 5644 5650 5664 5674 5681 5685 5693 5699 5705 5712 5717 5723 5728 5731 5735 5739 5741 5742 5743 5746 5746 5747 5748 5749 5751 5750 5749 5749 5749 5749 5747 5749 5748 5751 5747 5746 5746 5747 5746 5742 5740 5737
5617 5619 5625 5630 5641 5652 5660 5666 5672 5680 5687 5693 5700 5706 5712 5716 5720 5725 5729 5732 5734 5736 5738 5737 5738 5740 5742 5742 5743 5743 5743 5743 5744 5744 5743 5744 5744 5739 5740 5743 5744 5743 5741 5738 5736
5596 5601 5614 5622 5631 5640 5647 5653 5659 5667 5674 5680 5687 5694 5701 5705 5710 5714 5719 5723 5726 5727 5729 5729 5729 5731 5732 5733 5735 5737 5737 5737 5739 5738 5738 5740 5739 5735 5736 5739 5740 5739 5738 5736 5735
5578 5587 5602 5613 5619 5624 5632 5641 5648 5656 5662 5670 5676 5685 5689 5694 5701 5706 5710 5712 5715 5717 5720 5721 5720 5721 5724 5725 5726 5730 5732 5732 5733 5733 5732 5733 5735 5729 5733 5734 5734 5734 5734 5733 5733
5563 5576 5586 5594 5602 5610 5624 5633 5639 5645 5650 5658 5666 5671 5675 5682 5689 5694 5697 5700 5703 5707 5710 5711 5712 5713 5715 5716 5716 5722 5727 5724 5726 5727 5726 5728 5727 5726 5728 5729 5729 5729 5730 5729 5729